Temp
19 19 18 19 24 26 26 24 24 24 25 24 23 24 26 26 26 25 20 19 21 19 18 19 19 18 18 18 18 18 18 17 17 17 17 17 17 16 16 16 16 15 15 15 15 15 16 16 16
18 17 18 22 25 25 25 24 23 23 23 23 24 24 25 26 22 23 21 18 18 18 19 18 19 18 18 17 17 17 18 17 17 17 16 16 16 16 16 16 15 15 15 15 15 16 16 15 15
18 17 22 24 24 25 24 23 23 23 23 23 24 23 23 19 18 17 17 17 17 17 17 18 19 19 18 17 17 17 17 17 16 16 16 16 16 16 16 16 15 16 16 16 16 16 15 15 15
17 19 20 24 23 22 23 23 22 23 24 23 23 24 18 13 13 14 15 16 16 17 16 18 18 18 17 17 17 16 17 17 16 16 16 16 16 16 16 16 15 16 16 16 16 16 16 15 15
17 20 22 22 21 22 22 22 22 23 22 22 22 22 16 12 13 14 14 15 15 16 16 15 16 16 16 16 16 16 16 16 16 16 16 16 16 16 15 15 15 15 15 15 16 16 16 15 16
20 20 22 22 21 21 22 21 21 22 22 19 20 21 14 12 13 13 13 14 14 15 15 15 16 16 16 16 16 16 16 16 16 16 15 15 15 15 14 14 15 15 15 15 16 15 15 15 15
21 22 21 20 20 21 21 20 20 21 17 17 15 20 15 12 10 12 15 13 14 14 14 15 15 14 16 16 16 16 16 16 15 15 15 15 14 14 14 14 14 14 15 15 15 15 15 15 15
19 22 21 20 20 20 19 19 19 18 14 13 11 12 12 7 10 13 14 13 14 14 14 13 13 14 14 14 16 16 16 15 15 15 15 15 14 14 14 13 14 14 14 15 15 15 15 15 15
18 22 21 20 20 20 18 20 17 16 14 12 10 8 7 7 7 8 11 15 15 13 12 13 13 14 14 14 14 15 16 16 15 14 14 14 14 14 13 13 13 14 14 14 14 14 15 14 14
20 21 19 18 19 18 15 16 15 16 14 11 10 8 8 8 8 7 7 9 11 12 13 13 13 14 13 13 14 14 14 14 15 14 15 14 14 14 13 14 13 13 14 14 14 14 14 13 13
19 19 18 17 15 17 17 13 10 15 13 8 7 7 7 7 7 7 7 7 7 7 10 11 12 13 14 14 14 14 15 15 15 14 15 14 14 14 13 12 13 13 13 14 13 13 12 13 12
17 15 16 14 14 15 14 11 9 7 7 6 6 6 6 6 6 6 6 7 6 6 7 11 11 12 13 13 14 14 14 15 15 15 14 15 14 13 13 13 13 13 13 13 12 12 12 12 12
17 16 14 13 12 12 11 10 9 6 5 6 6 6 6 5 5 5 5 5 5 6 6 11 11 11 12 13 13 14 14 13 14 14 14 14 14 13 13 13 13 13 13 12 12 12 12 12 12
14 14 13 13 12 11 11 9 10 6 5 6 6 5 5 5 4 4 4 4 4 5 5 7 10 11 12 12 13 13 14 13 14 14 14 14 14 14 13 12 13 13 13 12 12 12 12 12 12
14 15 15 12 12 11 11 12 7 5 5 6 5 5 4 4 4 3 3 3 3 4 4 4 6 10 11 12 11 13 14 13 13 14 14 14 14 13 13 13 13 13 13 13 12 13 12 12 12
14 15 14 13 10 10 11 13 6 4 5 5 4 4 4 4 3 3 3 3 3 3 3 3 5 7 10 11 12 12 13 13 13 13 13 13 14 13 13 13 13 12 12 12 13 13 13 13 12
14 12 11 11 11 9 10 11 5 4 4 4 4 3 3 3 3 3 2 2 2 3 2 3 3 4 9 10 11 12 13 13 14 13 13 13 13 13 13 13 12 12 12 11 12 12 12 12 12
8 9 9 10 10 8 8 6 5 3 3 3 3 3 3 3 2 2 2 2 2 2 2 2 2 3 7 9 10 11 12 13 13 13 13 13 13 13 13 13 12 12 12 11 11 11 12 13 12
8 8 8 8 7 6 6 6 5 3 3 2 2 2 2 2 2 2 2 2 2 2 1 1 2 2 3 6 8 10 11 12 13 13 13 13 13 13 13 13 12 13 12 11 12 11 11 12 12
7 7 7 7 7 6 7 5 3 2 1 1 1 2 2 2 2 1 1 1 1 1 1 1 1 1 1 2 6 8 9 12 12 13 13 13 13 13 13 13 13 12 12 11 12 11 12 11 11
7 6 6 5 6 6 6 3 3 2 1 -0 -0 0 1 1 1 1 1 1 1 1 0 0 0 -0 0 2 4 7 8 10 12 12 13 13 13 13 12 12 13 12 12 12 12 11 11 11 10
6 6 6 6 5 5 5 1 2 3 2 1 0 -0 -0 1 1 1 1 1 1 1 0 -0 -0 -0 -1 1 3 5 7 9 10 12 12 13 13 14 13 13 13 12 12 12 12 12 11 11 11
5 6 7 6 5 5 4 3 1 2 1 1 0 0 0 -0 0 1 0 0 0 0 0 -0 -0 -0 -1 -1 1 3 5 7 9 11 11 13 13 13 13 13 12 12 12 12 12 12 11 11 11
6 6 7 6 6 3 2 3 -0 -1 -1 1 0 -0 0 0 -0 0 0 0 0 -0 -0 -0 -1 -1 -1 -1 -0 2 3 6 8 9 10 12 12 12 13 13 12 12 12 12 12 12 11 11 11
5 5 5 5 3 2 0 1 -2 -1 0 0 -0 -0 -1 -0 -0 -0 -0 -0 -1 -1 -1 -1 -1 -1 -1 -1 -1 1 2 3 6 7 9 11 12 12 12 12 12 12 12 12 12 11 11 11 11
4 4 2 -0 2 2 0 -2 -2 -0 0 0 -0 -0 -1 -1 -1 -1 -1 -1 -1 -1 -1 -1 -1 -1 -1 -2 -2 -1 0 2 4 5 8 9 10 11 12 12 12 12 12 12 11 12 11 11 11
2 3 4 1 3 2 1 -1 -1 2 1 0 -0 -0 -0 -1 -1 -1 -1 -1 -1 -2 -1 -2 -2 -1 -1 -2 -2 -2 -1 0 2 4 5 8 8 10 11 11 12 12 12 12 12 12 11 11 11
3 3 2 2 -0 0 -0 -1 -0 -1 -0 0 -0 -0 -1 -1 -1 -1 -1 -2 -2 -2 -2 -2 -2 -2 -2 -2 -2 -2 -2 -2 0 2 4 6 7 8 11 11 12 11 12 11 11 11 10 11 11
2 2 2 2 1 -0 -0 -0 -1 -1 -0 -0 -0 -1 -1 -1 -1 -2 -2 -2 -2 -2 -2 -2 -2 -2 -2 -2 -2 -2 -2 -2 -2 1 2 5 6 8 10 11 11 11 11 11 11 12 11 11 11
2 1 2 0 0 1 0 -0 2 0 -0 -0 -1 -1 -1 -1 -2 -2 -2 -3 -3 -3 -3 -3 -3 -3 -3 -2 -2 -2 -2 -2 -2 -1 1 3 5 7 9 10 11 11 11 11 11 11 11 11 11
Height
1509 1508 1509 1511 1507 1496 1492 1501 1501 1500 1500 1503 1501 1498 1492 1491 1489 1493 1496 1494 1493 1496 1496 1499 1501 1504 1506 1509 1510 1513 1515 1517 1519 1522 1524 1527 1529 1531 1533 1534 1535 1536 1538 1540 1543 1545 1547 1548 1549
1508 1509 1511 1508 1500 1494 1493 1501 1503 1505 1505 1502 1499 1497 1494 1491 1499 1499 1501 1497 1498 1497 1497 1499 1502 1505 1508 1510 1512 1514 1516 1518 1521 1523 1526 1528 1530 1532 1534 1534 1536 1538 1540 1542 1545 1547 1548 1549 1551
1508 1510 1508 1500 1497 1492 1493 1504 1506 1506 1503 1501 1498 1498 1495 1505 1505 1506 1505 1504 1503 1503 1503 1502 1503 1505 1508 1511 1513 1516 1517 1519 1522 1524 1527 1529 1531 1532 1534 1535 1537 1539 1541 1543 1546 1548 1550 1551 1553
1512 1513 1511 1500 1500 1505 1504 1506 1508 1503 1501 1501 1499 1494 1505 1511 1509 1509 1506 1508 1508 1510 1509 1506 1507 1509 1510 1512 1514 1517 1518 1520 1522 1524 1527 1529 1531 1533 1534 1536 1538 1540 1543 1545 1547 1550 1552 1554 1555
1513 1511 1504 1503 1507 1506 1508 1509 1507 1505 1504 1503 1500 1498 1507 1510 1509 1504 1507 1507 1509 1510 1511 1511 1511 1513 1513 1514 1516 1517 1519 1520 1523 1524 1526 1529 1531 1534 1535 1538 1539 1541 1544 1546 1548 1551 1552 1555 1557
1511 1511 1503 1502 1507 1507 1509 1511 1509 1506 1505 1507 1504 1503 1516 1515 1507 1505 1509 1507 1507 1508 1512 1512 1513 1513 1514 1516 1517 1518 1520 1521 1524 1525 1527 1529 1531 1534 1534 1536 1541 1542 1545 1547 1550 1551 1553 1556 1558
1510 1505 1506 1511 1511 1507 1510 1513 1512 1508 1514 1512 1512 1504 1516 1510 1510 1508 1504 1514 1512 1506 1508 1512 1515 1515 1514 1515 1517 1518 1519 1522 1524 1526 1527 1529 1531 1532 1532 1537 1539 1542 1545 1548 1550 1552 1554 1557 1560
1513 1507 1508 1511 1509 1512 1517 1515 1516 1516 1522 1521 1517 1523 1522 1522 1511 1508 1513 1517 1510 1507 1510 1509 1511 1512 1516 1516 1515 1517 1518 1520 1522 1525 1527 1527 1529 1531 1533 1535 1539 1542 1546 1549 1551 1553 1555 1558 1561
1514 1504 1505 1510 1510 1513 1519 1514 1521 1524 1525 1527 1530 1533 1534 1531 1523 1515 1507 1510 1502 1510 1513 1511 1510 1511 1510 1512 1515 1515 1516 1518 1520 1522 1524 1526 1528 1529 1531 1533 1538 1540 1546 1549 1552 1554 1556 1559 1562
1510 1505 1513 1520 1519 1522 1525 1522 1526 1524 1528 1530 1531 1532 1532 1530 1527 1523 1519 1515 1512 1511 1511 1512 1511 1511 1510 1510 1512 1513 1515 1517 1517 1519 1521 1522 1525 1527 1529 1532 1536 1539 1546 1549 1552 1555 1558 1560 1562
1517 1515 1522 1525 1526 1523 1524 1529 1533 1525 1530 1539 1536 1532 1530 1529 1525 1525 1525 1522 1519 1514 1513 1511 1510 1509 1508 1508 1509 1511 1512 1514 1515 1517 1518 1520 1521 1525 1526 1528 1535 1537 1545 1547 1551 1555 1558 1563 1564
1523 1530 1526 1533 1528 1527 1530 1535 1541 1542 1546 1544 1541 1537 1533 1529 1525 1523 1521 1520 1518 1514 1509 1506 1507 1507 1507 1506 1507 1509 1510 1512 1513 1515 1515 1517 1519 1522 1526 1528 1531 1535 1542 1545 1549 1554 1559 1560 1564
1524 1530 1533 1535 1536 1537 1537 1539 1542 1547 1547 1545 1542 1539 1535 1532 1530 1527 1523 1520 1515 1512 1507 1504 1504 1504 1504 1504 1505 1506 1508 1509 1511 1513 1514 1515 1516 1518 1522 1522 1528 1533 1538 1543 1547 1552 1555 1558 1561
1534 1535 1536 1538 1538 1541 1540 1542 1540 1549 1548 1546 1543 1540 1537 1534 1531 1528 1524 1520 1516 1512 1509 1504 1503 1501 1500 1501 1502 1504 1506 1507 1508 1510 1512 1513 1514 1516 1518 1522 1525 1526 1533 1541 1546 1548 1552 1556 1560
1536 1531 1534 1540 1540 1542 1541 1536 1549 1553 1550 1548 1545 1543 1539 1536 1533 1529 1526 1522 1518 1515 1511 1506 1502 1499 1497 1497 1498 1500 1502 1503 1505 1507 1509 1511 1511 1513 1516 1514 1524 1527 1531 1537 1543 1547 1549 1553 1557
1537 1532 1532 1536 1545 1543 1544 1527 1553 1555 1551 1549 1548 1545 1542 1538 1535 1531 1527 1523 1520 1516 1511 1507 1501 1497 1495 1494 1495 1496 1498 1500 1501 1503 1506 1508 1509 1511 1514 1517 1520 1522 1524 1532 1539 1543 1547 1551 1555
1535 1540 1540 1540 1542 1548 1544 1532 1557 1557 1555 1553 1550 1548 1545 1541 1537 1532 1528 1524 1520 1516 1511 1506 1501 1496 1493 1493 1491 1492 1494 1497 1499 1500 1502 1504 1506 1507 1509 1511 1511 1520 1522 1527 1534 1540 1545 1549 1553
1554 1550 1545 1541 1544 1550 1543 1551 1560 1561 1559 1558 1554 1551 1548 1544 1539 1535 1530 1525 1520 1516 1511 1506 1501 1496 1491 1490 1489 1489 1490 1492 1495 1496 1497 1501 1502 1504 1505 1509 1509 1514 1518 1523 1529 1536 1542 1545 1550
1559 1550 1544 1545 1552 1554 1551 1552 1559 1563 1563 1560 1556 1553 1550 1546 1543 1538 1532 1527 1522 1518 1513 1507 1503 1497 1492 1489 1486 1486 1486 1489 1489 1492 1494 1496 1500 1501 1503 1504 1507 1513 1515 1519 1525 1530 1537 1540 1547
1558 1554 1547 1548 1550 1553 1543 1551 1565 1569 1570 1567 1562 1557 1553 1549 1544 1540 1534 1529 1524 1518 1513 1508 1504 1499 1494 1491 1488 1486 1484 1485 1485 1489 1490 1493 1496 1498 1500 1500 1503 1506 1509 1515 1519 1525 1528 1534 1539
1555 1553 1553 1551 1547 1546 1546 1559 1564 1570 1570 1570 1567 1562 1556 1551 1546 1542 1536 1531 1525 1520 1514 1509 1504 1499 1493 1489 1486 1484 1483 1482 1483 1484 1487 1489 1491 1494 1496 1499 1496 1499 1505 1510 1512 1518 1522 1525 1530
1552 1558 1552 1542 1542 1531 1545 1554 1564 1564 1565 1568 1567 1564 1560 1553 1549 1544 1539 1533 1527 1522 1516 1510 1505 1500 1494 1488 1485 1482 1481 1479 1478 1479 1480 1482 1485 1489 1491 1493 1494 1495 1492 1504 1506 1514 1516 1518 1522
1564 1556 1542 1539 1537 1539 1540 1543 1566 1569 1568 1568 1568 1564 1561 1557 1551 1545 1541 1535 1530 1524 1518 1512 1506 1501 1496 1490 1486 1482 1479 1477 1476 1476 1476 1479 1481 1483 1486 1488 1490 1491 1496 1497 1501 1505 1510 1513 1516
1563 1547 1528 1534 1530 1537 1553 1547 1569 1577 1578 1573 1570 1567 1562 1557 1553 1548 1542 1537 1532 1526 1520 1514 1508 1502 1497 1492 1486 1482 1478 1475 1473 1472 1472 1473 1476 1478 1480 1482 1484 1484 1489 1490 1498 1500 1503 1508 1510
1565 1553 1531 1527 1534 1544 1566 1560 1584 1582 1579 1576 1572 1568 1565 1560 1554 1549 1543 1538 1533 1527 1521 1514 1508 1503 1498 1493 1487 1482 1478 1474 1472 1470 1468 1468 1470 1474 1474 1477 1479 1481 1485 1488 1492 1496 1499 1500 1503
1569 1564 1569 1569 1548 1550 1566 1576 1580 1581 1577 1575 1573 1569 1565 1561 1556 1550 1545 1540 1534 1528 1522 1515 1509 1504 1499 1494 1488 1482 1478 1473 1469 1467 1465 1465 1465 1468 1470 1471 1474 1477 1480 1484 1484 1489 1494 1495 1498
1579 1572 1568 1571 1552 1551 1560 1577 1580 1575 1575 1574 1571 1568 1563 1559 1555 1550 1545 1539 1534 1528 1522 1517 1511 1506 1501 1495 1489 1483 1477 1472 1468 1464 1463 1461 1460 1462 1465 1467 1468 1470 1475 1475 1480 1481 1489 1492 1496
1584 1582 1574 1564 1568 1559 1561 1569 1568 1577 1576 1573 1570 1566 1562 1558 1553 1549 1543 1538 1533 1528 1523 1517 1512 1507 1502 1496 1490 1484 1477 1471 1466 1463 1459 1458 1456 1457 1459 1461 1463 1464 1468 1471 1474 1475 1480 1488 1492
1583 1580 1579 1572 1570 1571 1563 1561 1578 1580 1578 1573 1570 1566 1561 1557 1553 1549 1544 1539 1533 1528 1522 1517 1512 1507 1501 1496 1491 1485 1478 1472 1465 1460 1457 1454 1453 1452 1453 1455 1458 1460 1463 1466 1468 1468 1471 1477 1484
1590 1587 1582 1581 1573 1567 1568 1567 1572 1576 1575 1572 1570 1567 1562 1558 1553 1549 1545 1539 1533 1527 1522 1516 1511 1506 1501 1497 1491 1485 1478 1471 1466 1459 1454 1451 1450 1448 1448 1449 1452 1455 1456 1460 1463 1466 1468 1471 1473
Wind_Speed
2 0 1 3 7 6 5 6 1 4 4 13 15 9 8 13 12 5 8 5 5 14 13 16 15 13 12 12 11 12 13 16 16 17 19 21 23 19 17 16 16 18 21 23 24 20 18 18 18
3 2 1 3 7 9 6 4 4 6 11 13 7 6 6 4 15 6 8 3 7 13 14 15 15 13 12 11 11 12 13 15 15 17 20 21 20 16 18 16 18 20 21 25 22 18 16 19 21
5 3 5 3 4 7 6 1 7 7 6 10 7 1 4 13 16 12 16 7 4 8 11 12 13 13 12 11 11 11 12 13 15 18 21 21 20 18 20 18 20 20 24 23 21 17 18 19 19
1 2 2 6 3 6 2 4 6 8 5 10 9 4 13 22 12 18 15 7 4 3 4 9 12 12 12 11 11 12 12 12 14 17 21 21 19 21 22 20 21 22 24 22 18 16 17 19 20
1 3 3 3 4 3 1 7 8 7 7 12 11 5 8 30 21 24 16 9 6 5 4 4 8 9 10 11 11 11 12 12 13 15 18 21 20 22 22 21 22 24 23 22 19 18 20 21 20
3 3 4 3 3 2 3 10 8 4 7 16 9 8 10 20 21 26 16 17 11 10 6 3 5 7 8 9 11 12 12 12 13 15 17 19 22 23 22 20 19 24 22 22 19 20 21 21 19
3 3 3 2 2 4 4 10 9 5 17 13 14 3 6 30 26 22 11 11 7 9 9 5 3 3 7 9 11 13 13 13 14 14 16 17 22 27 27 25 19 21 21 20 20 21 21 20 18
1 3 2 1 0 6 8 4 7 16 16 4 16 11 10 31 26 11 8 9 5 5 2 2 4 4 3 6 11 13 14 15 15 14 16 18 22 25 29 29 24 20 18 17 21 22 21 19 16
2 3 2 2 3 5 8 4 11 9 13 24 17 19 18 20 21 14 5 3 6 5 5 2 3 4 7 7 8 12 14 15 15 16 17 19 24 27 30 32 23 20 19 17 21 23 21 20 17
5 3 5 6 6 4 14 8 7 3 9 12 22 20 22 22 21 20 20 15 11 6 5 6 4 6 7 7 8 10 11 11 15 16 19 20 26 29 28 29 31 24 21 19 23 24 22 20 19
8 8 3 10 11 4 5 17 19 6 9 19 23 25 25 25 24 22 19 18 19 16 12 10 9 6 8 10 8 11 13 13 15 16 18 20 24 29 32 32 30 27 25 21 25 24 23 18 16
10 13 11 11 14 10 6 9 18 21 11 15 17 19 22 25 26 26 24 22 21 20 18 12 10 10 12 12 10 10 14 16 14 16 18 20 24 27 31 29 36 29 28 24 27 25 23 21 16
7 8 15 11 15 14 12 13 12 20 16 16 18 19 22 24 24 23 23 22 23 23 23 17 14 13 11 13 13 13 15 16 17 15 19 21 23 24 30 30 38 32 30 26 27 28 25 23 17
11 17 15 14 8 15 8 8 2 17 17 17 20 22 22 24 25 24 25 25 25 24 24 22 17 15 14 14 15 14 15 17 17 19 21 22 24 25 28 31 34 33 31 29 27 32 29 25 18
4 4 4 17 17 8 8 1 11 16 16 17 20 21 23 24 24 26 26 25 25 23 24 23 21 17 16 15 18 17 17 19 18 20 21 22 25 24 26 35 37 36 38 32 26 32 30 27 24
8 3 8 13 16 10 14 4 15 18 18 19 21 22 23 25 25 25 26 25 24 23 24 23 22 20 17 15 17 19 20 19 20 20 22 22 27 27 26 29 39 40 36 36 34 34 32 29 24
9 10 14 12 7 16 7 5 15 19 19 20 21 22 24 25 26 27 27 26 25 24 24 24 23 22 18 15 16 18 20 20 21 20 21 23 26 29 27 38 33 40 35 39 39 37 33 31 28
12 13 12 16 12 13 7 5 10 17 20 21 21 23 24 25 27 27 27 26 24 23 23 23 23 23 20 16 14 15 18 18 21 22 23 20 27 27 32 28 32 37 35 37 43 40 35 33 31
10 14 15 13 4 12 3 2 7 17 19 23 23 23 24 25 24 25 26 26 26 24 23 24 24 23 22 19 15 14 18 19 23 24 22 24 22 27 29 33 30 28 36 37 40 41 43 36 32
10 11 13 11 8 10 4 8 12 14 17 19 22 22 23 25 25 26 27 27 27 27 26 24 24 23 21 20 16 15 15 20 21 24 23 24 24 27 21 36 38 35 44 37 39 46 45 45 43
10 14 18 18 14 12 7 7 7 10 16 19 20 22 22 23 25 26 27 27 27 27 28 26 25 24 21 21 17 14 15 11 12 18 21 24 24 25 26 26 42 35 33 44 46 41 50 43 49
12 20 20 15 7 2 1 3 10 10 13 18 21 22 24 24 23 24 26 27 27 28 27 26 26 24 22 21 19 16 14 15 14 14 20 24 27 25 25 29 40 34 39 35 43 42 40 52 53
15 22 19 8 4 5 2 4 10 14 15 17 21 23 22 23 24 24 25 25 25 26 27 26 27 24 23 21 18 17 14 15 15 20 20 24 27 25 26 28 30 39 38 35 40 41 51 38 55
20 22 8 7 6 2 8 8 10 9 13 15 20 22 23 24 23 23 23 23 25 26 26 27 27 27 25 23 20 17 16 14 15 14 13 24 24 27 26 30 26 35 32 31 38 38 38 50 48
18 18 8 3 2 6 7 3 5 10 11 13 18 19 22 23 23 25 25 25 26 27 27 27 28 28 28 25 23 18 18 14 14 16 15 16 22 19 28 29 26 36 30 37 34 33 37 46 43
15 15 8 10 9 4 5 3 4 4 12 14 16 18 19 21 22 24 24 25 26 26 26 27 28 28 28 26 24 22 19 17 15 16 16 19 15 21 15 27 31 28 34 39 32 35 35 32 43
11 13 10 6 7 6 4 4 8 6 13 17 18 19 20 22 22 24 25 26 27 26 25 26 27 26 27 27 25 23 22 19 18 14 15 18 17 19 25 24 27 27 26 33 34 38 40 35 42
7 6 10 7 6 11 3 2 7 11 14 15 18 20 21 23 24 26 27 27 28 26 25 24 25 25 26 26 25 25 24 22 19 16 16 15 16 20 19 27 27 24 32 26 39 41 47 42 41
9 9 7 4 3 7 7 4 2 7 11 12 18 21 22 24 25 26 27 27 28 27 26 24 25 25 25 25 26 25 26 25 21 20 17 16 16 16 25 19 20 30 27 27 26 34 51 43 42
3 7 6 7 11 6 5 1 5 5 12 15 16 21 22 23 24 25 26 27 28 28 27 25 24 24 24 24 25 25 24 25 25 23 19 17 15 13 17 18 25 26 34 28 23 24 37 48 44
Wind_Direction
347 211 156 227 233 241 194 121 12 26 7 337 315 273 275 334 334 20 2 157 161 149 166 172 171 174 174 174 173 171 174 178 182 185 183 179 176 182 189 185 185 174 166 159 158 157 152 152 145
139 133 201 248 255 220 137 113 39 359 336 333 323 294 245 68 20 11 1 347 138 159 166 170 171 176 179 183 181 179 177 184 190 191 187 187 188 197 190 184 173 166 162 159 159 159 155 149 147
137 155 247 268 267 265 120 88 17 329 333 351 336 323 2 356 2 3 348 349 140 152 155 181 172 179 184 190 192 193 189 193 198 199 196 197 199 201 193 184 176 169 163 160 163 163 157 155 153
160 207 176 251 117 88 49 10 354 334 357 357 344 146 104 30 22 3 6 14 66 115 124 181 177 185 189 197 200 203 204 203 204 206 205 203 209 198 187 183 176 172 168 167 167 167 162 159 154
115 238 221 192 122 116 131 359 339 349 5 353 346 12 76 21 44 48 33 47 54 79 91 142 180 193 202 207 209 211 211 211 210 211 207 205 208 195 188 186 180 177 176 176 175 169 162 162 159
192 294 235 197 124 134 137 357 358 345 352 17 17 325 80 3 42 43 40 54 62 75 59 60 200 204 208 217 223 223 221 223 218 219 213 214 207 195 187 181 181 185 184 185 176 171 167 166 165
304 258 48 155 155 158 51 343 23 12 20 10 340 15 6 8 17 38 30 1 15 77 66 56 76 250 226 230 234 234 232 228 226 222 219 215 203 199 187 176 183 188 186 189 176 174 171 170 168
331 271 189 92 34 101 6 21 38 23 33 108 23 18 2 347 0 64 127 310 352 18 56 161 162 184 254 265 247 239 238 234 225 224 224 217 204 201 195 183 183 190 193 195 180 178 175 173 172
334 234 95 65 310 48 9 337 40 45 79 56 50 29 2 360 5 22 120 171 14 278 285 312 225 247 226 225 249 253 239 233 228 221 221 223 212 206 202 190 183 191 204 199 187 182 178 173 171
329 304 60 21 15 77 46 38 28 52 42 12 6 7 7 10 21 24 18 15 354 336 268 267 276 263 266 257 260 251 238 237 231 224 220 216 212 210 206 198 189 197 207 203 194 184 178 171 170
31 41 350 19 5 216 105 60 34 336 45 12 354 353 1 7 13 20 17 10 2 355 330 323 267 256 262 267 263 265 251 243 236 220 226 218 217 211 199 191 189 195 203 202 192 182 176 172 171
113 51 41 39 33 57 48 82 61 45 24 357 354 355 0 7 10 8 7 3 359 356 347 337 306 271 255 261 258 262 264 250 245 235 227 221 221 215 202 197 194 195 200 194 181 179 180 178 176
68 84 71 76 60 53 67 74 78 36 10 1 0 3 4 6 5 4 3 360 358 357 350 337 332 292 274 262 260 251 262 264 249 240 240 228 226 229 214 199 196 201 196 185 182 184 183 179 176
98 89 79 55 61 50 43 46 22 6 359 2 4 2 3 3 0 358 0 358 357 354 352 343 333 318 290 263 262 255 257 265 257 248 242 239 237 236 215 212 202 198 194 183 185 186 190 188 179
163 162 134 29 7 35 354 150 32 1 359 4 2 0 358 360 359 359 355 355 352 352 349 347 339 327 310 280 262 251 251 260 258 252 248 242 244 243 215 205 204 206 207 194 186 192 197 193 187
357 190 333 31 5 2 336 288 31 6 6 5 3 1 359 357 358 355 354 352 351 349 350 350 343 336 317 297 268 255 250 258 260 260 246 246 248 247 239 206 208 209 203 200 200 199 199 197 187
48 323 327 328 24 341 342 328 24 10 9 6 5 2 358 356 356 355 354 352 352 350 349 349 348 342 332 310 280 260 252 253 263 263 257 251 255 251 244 222 227 212 209 200 202 208 206 199 194
331 326 314 312 344 335 332 78 29 12 10 6 3 1 360 357 355 353 353 354 353 351 351 351 349 343 339 329 299 261 256 253 259 271 265 253 252 244 245 242 214 205 205 200 207 210 210 212 199
316 317 316 349 21 332 346 357 26 17 9 2 5 4 0 360 355 355 355 355 355 353 353 354 350 346 346 340 322 274 244 249 249 259 259 255 259 254 243 234 218 222 213 206 209 212 213 207 208
338 330 340 314 255 328 316 57 48 27 17 11 360 359 360 357 357 358 357 357 358 355 354 354 352 348 348 344 335 319 290 246 257 250 256 263 256 249 257 231 233 236 220 208 208 211 217 219 209
339 351 330 313 305 269 246 92 55 51 28 15 9 357 358 360 356 358 358 357 357 356 356 354 352 349 347 341 335 312 292 264 254 245 248 268 259 256 247 252 230 231 244 223 216 211 216 202 205
324 340 317 307 284 271 24 141 58 20 30 23 8 6 357 357 360 360 360 359 358 356 354 355 353 351 348 342 339 337 321 290 261 238 238 241 254 253 255 255 249 233 223 234 217 222 209 211 210
335 315 304 307 244 203 69 246 55 32 8 6 4 360 1 355 355 358 360 0 357 356 356 355 355 353 351 344 340 335 319 299 285 253 256 248 254 260 259 247 255 248 255 229 227 229 226 210 212
339 330 255 216 177 161 6 290 63 14 4 355 358 356 355 356 354 356 356 357 358 356 356 356 357 355 352 348 336 336 325 305 295 267 256 239 246 255 258 250 253 230 245 225 230 233 231 226 216
9 358 342 306 311 32 3 21 44 357 355 353 351 354 352 352 355 358 359 357 355 353 354 354 356 356 354 349 342 331 329 318 302 295 272 249 222 245 254 255 248 250 255 228 242 232 231 229 222
10 10 13 309 343 1 107 35 95 355 351 355 352 349 350 350 352 355 356 356 354 352 352 353 354 354 354 351 346 337 327 321 312 301 280 258 239 222 233 250 246 253 255 246 237 225 223 209 206
343 10 312 288 256 278 85 133 212 327 353 352 353 349 350 350 350 352 353 355 355 353 351 351 352 351 352 351 349 345 336 325 317 301 294 277 263 237 240 249 244 255 241 242 230 232 220 217 218
2 358 347 340 326 319 111 198 12 349 345 348 350 350 349 351 351 351 352 351 351 351 347 347 350 349 348 350 349 347 345 334 319 309 300 293 271 252 239 241 240 244 256 246 237 225 220 224 227
8 10 336 279 359 318 322 53 121 347 336 340 346 349 350 349 349 348 349 348 347 347 346 344 345 347 347 348 348 347 348 347 336 319 309 298 283 264 241 232 233 236 254 261 251 227 225 231 231
347 342 360 338 347 335 274 345 38 333 338 344 345 346 346 347 347 345 345 346 346 345 344 344 343 344 344 345 346 347 348 349 348 337 317 306 292 273 245 225 227 239 242 246 247 254 235 241 238